Total_Precipitation_Accumulation
0.00 0.00 0.00 0.00 0.00 0.00 0.01 0.00 0.05 0.07 0.01 0.00 0.00 0.00 0.00 0.00 0.00 0.00 0.00 0.00 0.01 0.00 0.01 0.02 0.07 0.10 0.12 0.08 0.03 0.01 0.02 0.05 0.08 0.11 0.17 0.22 0.22 0.19
0.00 0.00 0.00 0.00 0.00 0.00 0.00 0.00 0.01 0.04 0.05 0.00 0.00 0.00 0.00 0.00 0.00 0.00 0.00 0.00 0.00 0.01 0.03 0.04 0.04 0.05 0.08 0.08 0.08 0.05 0.02 0.02 0.03 0.06 0.12 0.17 0.18 0.20
0.00 0.00 0.00 0.00 0.00 0.00 0.00 0.00 0.00 0.00 0.02 0.00 0.00 0.00 0.00 0.00 0.00 0.00 0.00 0.00 0.01 0.02 0.01 0.04 0.04 0.02 0.04 0.06 0.04 0.06 0.06 0.02 0.02 0.03 0.09 0.14 0.15 0.13
0.00 0.00 0.00 0.00 0.00 0.00 0.00 0.00 0.00 0.00 0.00 0.01 0.00 0.00 0.00 0.00 0.00 0.01 0.01 0.00 0.02 0.04 0.04 0.04 0.07 0.11 0.05 0.02 0.02 0.02 0.03 0.04 0.02 0.02 0.04 0.09 0.14 0.18
0.00 0.00 0.00 0.00 0.00 0.00 0.00 0.00 0.00 0.01 0.03 0.06 0.02 0.00 0.00 0.00 0.00 0.00 0.01 0.02 0.02 0.01 0.03 0.05 0.08 0.07 0.14 0.05 0.01 0.01 0.02 0.01 0.02 0.02 0.04 0.05 0.09 0.13
0.00 0.00 0.00 0.00 0.00 0.00 0.01 0.01 0.03 0.05 0.02 0.03 0.02 0.00 0.00 0.00 0.02 0.03 0.03 0.02 0.03 0.02 0.03 0.06 0.09 0.09 0.08 0.13 0.09 0.04 0.02 0.03 0.02 0.02 0.04 0.06 0.06 0.09
0.00 0.00 0.00 0.00 0.00 0.00 0.01 0.02 0.03 0.04 0.04 0.04 0.04 0.03 0.03 0.03 0.04 0.05 0.05 0.03 0.02 0.04 0.04 0.02 0.03 0.07 0.09 0.10 0.16 0.20 0.10 0.02 0.01 0.02 0.02 0.08 0.10 0.09
0.00 0.00 0.00 0.00 0.00 0.00 0.00 0.01 0.02 0.06 0.09 0.06 0.05 0.06 0.05 0.06 0.08 0.12 0.10 0.05 0.04 0.06 0.05 0.02 0.02 0.03 0.05 0.09 0.16 0.24 0.28 0.14 0.02 0.02 0.04 0.05 0.12 0.16
0.00 0.00 0.00 0.00 0.00 0.00 0.00 0.01 0.02 0.03 0.07 0.09 0.09 0.05 0.07 0.06 0.06 0.07 0.07 0.07 0.05 0.04 0.06 0.01 0.01 0.02 0.01 0.05 0.05 0.05 0.13 0.18 0.05 0.00 0.02 0.11 0.14 0.17
0.00 0.00 0.00 0.00 0.00 0.01 0.06 0.06 0.01 0.00 0.01 0.02 0.04 0.04 0.04 0.04 0.04 0.05 0.08 0.05 0.02 0.00 0.00 0.03 0.00 0.01 0.01 0.01 0.00 0.01 0.05 0.19 0.18 0.03 0.02 0.15 0.22 0.21
0.00 0.00 0.00 0.00 0.01 0.04 0.05 0.03 0.01 0.00 0.01 0.01 0.02 0.02 0.03 0.04 0.05 0.11 0.09 0.10 0.07 0.02 0.01 0.05 0.01 0.02 0.01 0.00 0.00 0.00 0.00 0.07 0.23 0.16 0.11 0.21 0.27 0.18
0.00 0.00 0.00 0.01 0.02 0.03 0.05 0.04 0.02 0.02 0.01 0.01 0.01 0.01 0.01 0.01 0.02 0.05 0.07 0.16 0.15 0.14 0.06 0.12 0.04 0.08 0.11 0.01 0.00 0.00 0.00 0.00 0.10 0.27 0.21 0.33 0.31 0.15
0.00 0.00 0.00 0.01 0.02 0.02 0.03 0.04 0.10 0.05 0.01 0.02 0.02 0.02 0.02 0.03 0.03 0.04 0.05 0.10 0.15 0.11 0.04 0.17 0.11 0.07 0.13 0.09 0.05 0.02 0.01 0.01 0.01 0.14 0.35 0.32 0.31 0.26
0.00 0.00 0.00 0.01 0.01 0.01 0.01 0.04 0.02 0.01 0.02 0.03 0.03 0.03 0.03 0.03 0.03 0.03 0.05 0.08 0.08 0.07 0.02 0.10 0.18 0.11 0.18 0.10 0.09 0.15 0.05 0.03 0.02 0.09 0.41 0.39 0.31 0.34
0.00 0.00 0.00 0.00 0.01 0.01 0.01 0.02 0.02 0.02 0.03 0.03 0.03 0.03 0.04 0.05 0.06 0.11 0.10 0.07 0.06 0.02 0.02 0.03 0.07 0.03 0.05 0.08 0.07 0.06 0.06 0.07 0.13 0.24 0.38 0.55 0.48 0.40
0.00 0.00 0.01 0.02 0.02 0.02 0.02 0.03 0.05 0.04 0.06 0.07 0.06 0.05 0.06 0.08 0.12 0.16 0.16 0.21 0.21 0.08 0.04 0.04 0.05 0.06 0.06 0.04 0.05 0.03 0.02 0.05 0.10 0.23 0.39 0.70 0.67 0.66
0.04 0.07 0.07 0.06 0.04 0.03 0.02 0.02 0.04 0.06 0.06 0.05 0.05 0.05 0.06 0.07 0.09 0.12 0.14 0.19 0.32 0.29 0.48 0.18 0.10 0.09 0.08 0.08 0.10 0.03 0.02 0.02 0.03 0.06 0.30 0.71 0.95 0.83
0.18 0.14 0.08 0.07 0.07 0.04 0.04 0.03 0.04 0.06 0.05 0.06 0.05 0.04 0.05 0.05 0.05 0.06 0.07 0.10 0.14 0.14 0.18 0.25 0.31 0.21 0.16 0.10 0.09 0.14 0.10 0.04 0.02 0.02 0.11 0.37 0.50 0.59
0.30 0.13 0.08 0.06 0.05 0.05 0.04 0.03 0.02 0.02 0.04 0.08 0.05 0.04 0.04 0.03 0.03 0.04 0.03 0.03 0.04 0.03 0.03 0.03 0.11 0.35 0.41 0.29 0.12 0.08 0.20 0.22 0.08 0.05 0.04 0.10 0.22 0.28
0.17 0.11 0.08 0.05 0.06 0.08 0.07 0.05 0.03 0.04 0.05 0.04 0.03 0.03 0.03 0.02 0.02 0.03 0.03 0.03 0.01 0.01 0.01 0.01 0.03 0.04 0.11 0.33 0.35 0.09 0.05 0.16 0.19 0.11 0.07 0.06 0.07 0.11
0.06 0.07 0.05 0.05 0.05 0.04 0.06 0.05 0.05 0.04 0.03 0.03 0.02 0.01 0.02 0.02 0.02 0.02 0.02 0.01 0.00 0.00 0.00 0.00 0.00 0.01 0.05 0.07 0.12 0.13 0.05 0.04 0.16 0.18 0.19 0.12 0.06 0.04
0.07 0.09 0.07 0.08 0.08 0.07 0.06 0.05 0.04 0.03 0.03 0.02 0.01 0.01 0.01 0.01 0.01 0.01 0.01 0.00 0.00 0.00 0.00 0.00 0.01 0.03 0.12 0.17 0.20 0.23 0.06 0.05 0.07 0.06 0.03 0.15 0.10 0.07
0.16 0.16 0.15 0.16 0.16 0.16 0.12 0.08 0.05 0.03 0.03 0.02 0.02 0.02 0.00 0.00 0.01 0.00 0.01 0.00 0.00 0.00 0.00 0.00 0.01 0.03 0.11 0.10 0.13 0.27 0.09 0.05 0.04 0.02 0.02 0.03 0.03 0.01